Location: *
(55.5817°S, 142.4781°W)
Time: 06:24:26
(UTC+00:00)

Cosmos 192 - Pass Details

Date: 29 April 2025
Orbit: 695 x 708 km, 74.0° (Epoch: 23 May)

Event Time Altitude Azimuth Distance (km) Brightness Sun altitude
Exits shadow 14:40:37 34° 294° (WNW) 1,179 5.0 -18.6°
Maximum altitude 14:42:32 54° 235° (SW) 875 4.5 -18.4°
Drops below altitude 10° 14:47:26 10° 157° (SSE) 2,212 7.2 -17.7°
Sets 14:49:50 0° 152° (SSE) 3,135 8.0 -17.3°
